{"data":{"norad_id":58529,"intl_designator":"2023-191X","name":"STARLINK-30988","alt_names":[],"object_type":"PAYLOAD","status":"ACTIVE","operator":null,"country":"US","launch_date":"2023-12-07","launch_site_code":"AFETR","launch_vehicle":null,"mission":null,"orbit_class":"UNKNOWN","rcs_meters":null,"size_class":null,"mass_kg":null,"dimensions":null,"purposes":["comms"],"wikipedia_slug":null,"has_3d_model":false,"image_url":null,"decayed_at":null,"tle_current":{"epoch":"2026-09-20T05:22:27.338592Z","epoch_age_seconds":170666,"freshness":"FRESH","line1":"1 58529U 23191X   26263.22392753  .00000621  00000+0  32106-4 0  9991","line2":"2 58529  43.0041  84.7306 0001266 257.2597 102.8113 15.27570117155220","mean_motion":15.27570117,"eccentricity":0.0001266,"inclination_deg":43.0041,"raan_deg":84.7306,"arg_perigee_deg":257.2597,"mean_anomaly_deg":102.8113,"bstar":3.2106e-5,"rev_number":15522,"period_min":94.267358596149,"perigee_km":482.21005955031,"apogee_km":483.94731936288,"semimajor_km":6861.2156894566,"source":"CELESTRAK","updated_at":"2026-09-21T09:00:33.911119Z"}}}